Regional Weather Roundup
Issued by NWS

Home | Current Version | Previous Version | Text Only | Print | Product List | Glossary Off
Versions: 1 2 3 4 5 6 7 8 9 10 11 12 13 14 15 16 17 18 19 20 21 22 23 24 25 26 27 28 29 30 31 32 33 34 35 36 37 38 39 40 41 42 43 44 45 46 47 48 49 50

000
ASUS43 KLSX 021910
RWRMO

WEATHER SUMMARY FOR MISSOURI
NATIONAL WEATHER SERVICE SPRINGFIELD MO
100 PM CST FRI DEC 02 2016

NOTE: "FAIR" INDICATES FEW OR NO CLOUDS BELOW 12,000 FEET WITH NO
       SIGNIFICANT WEATHER AND/OR OBSTRUCTIONS TO VISIBILITY.
       CURRENT SKY AND/OR WEATHER CONDITIONS ARE NOT AVAILABLE FOR
       CHILLICOTHE AND FARMINGTON.

MOZ001>031-035>038-043-044-053-054-022000-
...NORTHERN AND WESTERN MISSOURI...

CITY           SKY/WX    TMP DP  RH WIND       PRES   REMARKS
KANSAS CTY INT MOSUNNY   47  27  45 NE5       30.27F
KANSAS C DTWN  SUNNY     49  29  46 CALM      30.27F
LEE`S SUMMIT   SUNNY     48  27  44 CALM      30.27F
ST JOSEPH      SUNNY     44  29  55 CALM      30.28F
CHILLICOTHE      N/A     45  31  58 MISG      30.29S
KIRKSVILLE     SUNNY     44  30  57 SW3       30.26S

$$
MOZ066>068-077>081-088>096-101>105-022000-
...SOUTHWEST MISSOURI...

CITY           SKY/WX    TMP DP  RH WIND       PRES   REMARKS
SPRINGFIELD    SUNNY     55  24  30 NE6       30.23S
JOPLIN         PTSUNNY   57  28  33 E6        30.23F
BRANSON        PTSUNNY   54  28  37 CALM      30.24S

$$
MOZ032>034-039>042-045>050-055>058-069>072-022000-
...CENTRAL MISSOURI...

CITY           SKY/WX    TMP DP  RH WIND       PRES   REMARKS
COLUMBIA       SUNNY     47  27  45 NW7       30.27S
JEFFERSON CITY SUNNY     48  28  46 NW5       30.28S
ROLLA          SUNNY     50  26  39 N7        30.25F
SEDALIA        SUNNY     49  26  41 VRB5      30.28F
WHITEMAN AFB   MOSUNNY   49  26  41 CALM      30.26F
WARRENSBURG    SUNNY     46  28  49 CALM      30.27F
OSAGE BEACH    SUNNY     52  26  36 VRB3      30.27F

$$
MOZ051-052-059>065-022000-
...EAST CENTRAL MISSOURI...

CITY           SKY/WX    TMP DP  RH WIND       PRES   REMARKS
ST LOUIS INTL  MOSUNNY   47  29  49 NW9       30.27F
SPIRIT OF STL  SUNNY     48  31  51 N8        30.27S
ST CHARLES     SUNNY     46  30  53 NW9       30.27S

$$
MOZ072>076-082>087-097>100-106>115-022000-
...SOUTH CENTRAL AND SOUTHEAST MISSOURI...

CITY           SKY/WX    TMP DP  RH WIND       PRES   REMARKS
CAPE GIRARDEAU SUNNY     49  32  52 VRB3      30.26F
FARMINGTON     SUNNY     50  29  44 VRB7      30.25F
POPLAR BLUFF   SUNNY     52  31  44 NE5       30.26F
WEST PLAINS    SUNNY     54  27  35 VRB3      30.24F

$$



USA.gov is the U.S. government's official web portal to all federal, state and local government web resources and services.